NOAA 16 DEB, 41288

Orbit data source: Space-Track

NOAA 16 DEB, 41288 is space debris in SSO originally from a launch on Thu, 21 Sep 2000 UTC launched from the Air Force Western Test Range (AFWTR). Debris objects in space refer to the collection of defunct objects orbiting the Earth. Examples of debris include non-operational satellites, rocket bodies, and fragments generated from explosions, collisions, or faulty payload assembly.

Loading next visibility...
Identifier
41288, 2000-055GQ
Orbit
SSO
Country
Flag of USUS
Related business
Manufacturer
Unknown
Mission
Spacecraft
Bus & Motor
Unknown
Mass
Unknown
Launch date (UTC)
2000-09-21 (25 years ago)
Launch vehicle
Unknown
Launch site
Air Force Western Test Range (AFWTR)
Object type
Payload
Rocket body
Debris
Shape & HBR
Unknown shape, 0.1 m
Radar Cross Section
Small (<0.1 m²)

Expand to show TLE details & history
Last TLE update: 8 hours ago

TLE from 8 hours ago
0 NOAA 16 DEB
1 41288U 00055GQ  25311.23658460  .00015353  00000-0  55694-2 0  9997
2 41288  98.9054  47.8370 0028556 159.6571 200.5756 14.33176410508490
Epoch: 2025-11-07T05:40Z
TLE epoch observation values (Epoch: 2025-11-07T05:40:40.909Z)
Latitude
-0.00007°
Longitude
-84.01689°
Altitude
803.21 km
Speed
7.442 km/s
True Right ascension
03h 11m 20s
True Declination
0° 00' 00"
Sunlit
Object was in full shadow at epoch
Visualization orbit readout
Latitude
Unknown
Longitude
Unknown
Altitude
Unknown
Speed
Unknown
Apparent Right ascension
Unknown
Apparent Declination
Unknown
Sunlit
N/A
Visualization observer readout
Local Sidereal Time
10:13:21
Azimuth
Unknown
Elevation
Unknown
Doppler factor
Unknown
Orbital elements
Apogee altitude
798.719 km
Perigee altitude
757.848 km
Semi-major axis
7,156.42 km
Eccentricity
0.00286
Inclination
98.9054°
RAAN
47.837°
Arg. of periapsis
159.6571°
True anomaly
200.46098°
Mean anomaly
200.5756°
Eccentric anomaly
200.51825°
Mean motion
3.58508 °/min
Orbital period
100.42 mins
BSTAR
0.0055694
Loading maneuver chart data...
Computing Atmospheric mass density...
Loading historical data...
Loading historical data...
Loading historical data...
Loading historical data...
Loading historical data...
Loading historical data...
Loading historical data...

Documentation

Showing up to 5 results
|